Brainerd, MN

6:29 PM CDT on May 24, 2018 (GMT -0500)
Brainerd-Crow Wing County Regional

Weather History for KBRD - August, 2014

Change the Weather History Date:

Monday, August 25, 2014

  Actual Average Record
Temperature  
Mean Temperature 62 °F -  
Max Temperature 68 °F 77 °F 95 °F (2013)
Min Temperature 55 °F 55 °F 42 °F (1982)
Degree Days  
Heating Degree Days 4    
Growing Degree Days 12 (Base 50)    
Moisture  
Dew Point 53 °F    
Average Humidity 76    
Maximum Humidity 100    
Minimum Humidity 55    
Precipitation  
Precipitation 0.00 in - - ()
Sea Level Pressure  
Sea Level Pressure 29.95 in    
Wind  
Wind Speed 8 mph (West)    
Max Wind Speed 22 mph    
Max Gust Speed 28 mph    
Visibility 10 miles    
Events      
Averages and records for this station are not official NWS values.
T = Trace of Precipitation, MM = Missing Value Source: NWS Daily Summary

Daily Weather History Graph

Daily Weather History Graph

Search for Another Location

Airport or City:

Astronomy

Aug. 25, 2014 Rise Set
Actual Time 6:27 AM CDT 8:08 PM CDT
Civil Twilight 5:56 AM CDT 8:40 PM CDT
Nautical Twilight 5:17 AM CDT 9:18 PM CDT
Astronomical Twilight 4:35 AM CDT 10:00 PM CDT
Moon 6:37 AM CDT (8/25) 7:54 PM CDT (8/25)
Length of Visible Light 14h 44m
Length of Day
13h 40m
New Moon, 0% of the Moon is Illuminated
Aug 25
New Moon
Sep 2
First Quarter
Sep 8
Full
Sep 15
Last Quarter
Sep 24
New

Hourly Weather History & Observations

Time (CDT) Temp. Dew Point Humidity Pressure Visibility Wind Dir Wind Speed Gust Speed Precip Events Conditions
12:53 AM 61.0 °F 60.1 °F 97% 29.84 in 10.0 mi South 3.5 mph - N/A   Clear
1:53 AM 59.0 °F 57.9 °F 96% 29.86 in 10.0 mi Calm Calm - N/A   Clear
2:53 AM 57.9 °F 57.9 °F 100% 29.86 in 10.0 mi Calm Calm - N/A   Clear
3:53 AM 57.9 °F 57.0 °F 97% 29.85 in 10.0 mi Calm Calm - N/A   Clear
4:53 AM 55.9 °F 55.9 °F 100% 29.85 in 10.0 mi SW 3.5 mph - N/A   Clear
5:53 AM 55.9 °F 55.0 °F 97% 29.87 in 10.0 mi Calm Calm - N/A   Clear
6:53 AM 57.0 °F 55.9 °F 96% 29.87 in 10.0 mi Calm Calm - N/A   Clear
7:53 AM 60.1 °F 57.9 °F 93% 29.89 in 10.0 mi SW 6.9 mph - N/A   Clear
9:53 AM 62.1 °F 50.0 °F 65% 29.91 in 10.0 mi WSW 16.1 mph 23.0 mph N/A   Clear
10:53 AM 63.0 °F 50.0 °F 63% 29.92 in 10.0 mi SW 18.4 mph 24.2 mph N/A   Clear
11:53 AM 66.0 °F 50.0 °F 56% 29.93 in 10.0 mi WSW 19.6 mph 25.3 mph N/A   Partly Cloudy
12:53 PM 68.0 °F 51.1 °F 55% 29.95 in 10.0 mi WSW 21.9 mph 27.6 mph N/A   Scattered Clouds
1:53 PM 66.0 °F 51.1 °F 59% 29.96 in 10.0 mi West 13.8 mph - N/A   Overcast
2:53 PM 66.0 °F 52.0 °F 60% 29.95 in 10.0 mi West 17.3 mph 25.3 mph N/A   Overcast
3:53 PM 64.9 °F 53.1 °F 65% 29.95 in 10.0 mi WNW 11.5 mph - N/A   Overcast
4:53 PM 66.0 °F 53.1 °F 63% 29.96 in 10.0 mi WNW 15.0 mph 21.9 mph N/A   Overcast
5:53 PM 64.9 °F 53.1 °F 65% 29.97 in 10.0 mi WNW 10.4 mph - N/A   Overcast
6:53 PM 63.0 °F 52.0 °F 67% 30.00 in 10.0 mi West 17.3 mph 21.9 mph N/A   Overcast
7:53 PM 61.0 °F 50.0 °F 67% 30.02 in 10.0 mi West 12.7 mph - N/A   Overcast
10:50 PM 57.2 °F 48.2 °F 72% 30.06 in 10.0 mi NW 11.5 mph 20.7 mph N/A   Overcast
10:53 PM 57.0 °F 48.9 °F 74% 30.07 in 10.0 mi NW 11.5 mph - N/A   Overcast
11:02 PM 57.0 °F 48.9 °F 74% 30.07 in 10.0 mi NW 11.5 mph - N/A   Overcast
11:42 PM 55.9 °F 46.9 °F 72% 30.08 in 10.0 mi WNW 10.4 mph 20.7 mph N/A   Overcast
11:53 PM 55.9 °F 46.9 °F 72% 30.08 in 10.0 mi WNW 16.1 mph 23.0 mph N/A   Overcast